| time (UTC) | temp F | wind direction | speed MPH | gust MPH | rain 1hr in | rain 24hr in | rain mn in | humidity % | barometer mb |
| 20260504034539 | 55 | 0 | 0.0 | 0.0 | 0.00 | 0.00 | 0.00 | 62 | 1017.1 |
| 20260504033030 | 55 | 0 | 0.0 | 2.0 | 0.00 | 0.00 | 0.00 | 62 | 1017.0 |
| 20260504031528 | 55 | 0 | 0.0 | 2.0 | 0.00 | 0.00 | 0.00 | 61 | 1017.1 |
| 20260504030036 | 56 | 0 | 0.0 | 1.0 | 0.00 | 0.00 | 0.00 | 60 | 1016.7 |
| 20260504024530 | 56 | 0 | 0.0 | 1.0 | 0.00 | 0.00 | 0.00 | 59 | 1016.9 |
| 20260504023027 | 57 | 0 | 0.0 | 1.0 | 0.00 | 0.00 | 0.00 | 59 | 1016.9 |
| 20260504021537 | 58 | 0 | 0.0 | 0.0 | 0.00 | 0.00 | 0.00 | 57 | 1016.7 |
| 20260504020036 | 59 | 0 | 0.0 | 0.0 | 0.00 | 0.00 | 0.00 | 56 | 1016.6 |
| 20260504014527 | 60 | 0 | 0.0 | 0.0 | 0.00 | 0.00 | 0.00 | 54 | 1016.3 |
| 20260504013035 | 61 | 0 | 0.0 | 0.0 | 0.00 | 0.00 | 0.00 | 52 | 1016.2 |
| 20260504011530 | 61 | 0 | 0.0 | 0.0 | 0.00 | 0.00 | 0.00 | 50 | 1016.1 |
| 20260504010027 | 62 | 0 | 0.0 | 0.0 | 0.00 | 0.00 | 0.00 | 49 | 1016.1 |
| 20260504004541 | 64 | 0 | 0.0 | 0.0 | 0.00 | 0.00 | 0.00 | 48 | 1016.0 |
| 20260504003028 | 65 | 0 | 0.0 | 0.0 | 0.00 | 0.00 | 0.00 | 45 | 1015.9 |
| 20260504001535 | 66 | 0 | 0.0 | 0.0 | 0.00 | 0.00 | 0.00 | 44 | 1015.7 |
| 20260504000029 | 67 | 0 | 0.0 | 1.0 | 0.00 | 0.00 | 0.00 | 43 | 1015.6 |
| 20260503234529 | 67 | 0 | 0.0 | 1.0 | 0.00 | 0.00 | 0.00 | 43 | 1015.6 |
| 20260503233029 | 68 | 0 | 0.0 | 2.0 | 0.00 | 0.00 | 0.00 | 42 | 1015.7 |
| 20260503231530 | 68 | 213 | 0.0 | 3.0 | 0.00 | 0.00 | 0.00 | 42 | 1015.6 |
| 20260503230028 | 68 | 242 | 1.0 | 5.0 | 0.00 | 0.00 | 0.00 | 42 | 1015.7 |
| 20260503224528 | 68 | 195 | 2.0 | 9.0 | 0.00 | 0.00 | 0.00 | 41 | 1015.7 |
| 20260503223028 | 68 | 218 | 1.0 | 8.0 | 0.00 | 0.00 | 0.00 | 42 | 1015.8 |
| 20260503221532 | 69 | 0 | 2.0 | 13.0 | 0.00 | 0.00 | 0.00 | 42 | 1015.8 |
| 20260503220034 | 69 | 167 | 1.0 | 10.0 | 0.00 | 0.00 | 0.00 | 42 | 1015.9 |
| 20260503214541 | 69 | 215 | 2.0 | 10.0 | 0.00 | 0.00 | 0.00 | 43 | 1016.1 |
| 20260503213033 | 69 | 0 | 0.0 | 9.0 | 0.00 | 0.00 | 0.00 | 42 | 1016.2 |
| 20260503211528 | 68 | 0 | 1.0 | 10.0 | 0.00 | 0.00 | 0.00 | 44 | 1016.3 |
| 20260503210027 | 67 | 0 | 0.0 | 4.0 | 0.00 | 0.00 | 0.00 | 44 | 1016.3 |
| 20260503204530 | 68 | 217 | 1.0 | 7.0 | 0.00 | 0.00 | 0.00 | 43 | 1016.5 |
| 20260503203029 | 68 | 0 | 5.0 | 14.0 | 0.00 | 0.00 | 0.00 | 41 | 1016.8 |
| 20260503201534 | 68 | 290 | 5.0 | 14.0 | 0.00 | 0.00 | 0.00 | 39 | 1017.0 |
| 20260503200028 | 68 | 224 | 1.0 | 7.0 | 0.00 | 0.00 | 0.00 | 42 | 1017.3 |
| 20260503194534 | 68 | 0 | 0.0 | 7.0 | 0.00 | 0.00 | 0.00 | 43 | 1017.5 |
| 20260503193030 | 67 | 311 | 1.0 | 11.0 | 0.00 | 0.00 | 0.00 | 43 | 1017.7 |
| 20260503191527 | 67 | 217 | 3.0 | 16.0 | 0.00 | 0.00 | 0.00 | 42 | 1018.1 |
| 20260503190038 | 67 | 286 | 2.0 | 9.0 | 0.00 | 0.00 | 0.00 | 40 | 1018.1 |
| 20260503184530 | 66 | 295 | 2.0 | 13.0 | 0.00 | 0.00 | 0.00 | 40 | 1018.3 |
| 20260503183036 | 66 | 238 | 3.0 | 14.0 | 0.00 | 0.00 | 0.00 | 41 | 1018.5 |
| 20260503181549 | 66 | 171 | 2.0 | 7.0 | 0.00 | 0.00 | 0.00 | 42 | 1018.5 |
| 20260503180041 | 65 | 233 | 3.0 | 13.0 | 0.00 | 0.00 | 0.00 | 43 | 1018.6 |
| 20260503174529 | 65 | 238 | 4.0 | 9.0 | 0.00 | 0.00 | 0.00 | 44 | 1018.7 |
| 20260503173027 | 63 | 336 | 1.0 | 12.0 | 0.00 | 0.00 | 0.00 | 43 | 1018.9 |
| 20260503171530 | 63 | 266 | 5.0 | 11.0 | 0.00 | 0.00 | 0.00 | 41 | 1019.3 |
| 20260503081529 | 42 | 0 | 0.0 | 0.0 | 0.00 | 0.01 | 0.00 | 85 | 1017.3 |
| 20260503071527 | 44 | 0 | 0.0 | 0.0 | 0.00 | 0.01 | 0.00 | 82 | 1016.6 |
| 20260503054537 | 46 | 0 | 0.0 | 0.0 | 0.00 | 0.01 | 0.00 | 82 | 1016.6 |
| 20260503053030 | 46 | 0 | 0.0 | 0.0 | 0.00 | 0.01 | 0.00 | 81 | 1016.6 |
| 20260503051535 | 47 | 0 | 0.0 | 0.0 | 0.00 | 0.01 | 0.00 | 80 | 1016.5 |
| 20260503050030 | 47 | 0 | 0.0 | 3.0 | 0.00 | 0.01 | 0.00 | 79 | 1016.5 |
| 20260503044531 | 48 | 0 | 0.0 | 0.0 | 0.00 | 0.01 | 0.00 | 77 | 1016.4 |
| 20260503043030 | 48 | 0 | 0.0 | 0.0 | 0.00 | 0.01 | 0.00 | 75 | 1016.5 |
| 20260503041530 | 49 | 0 | 0.0 | 0.0 | 0.00 | 0.01 | 0.00 | 73 | 1016.3 |
| 20260503040036 | 49 | 0 | 0.0 | 0.0 | 0.00 | 0.01 | 0.00 | 73 | 1016.4 |